星链-36250(STARLINK-36250)

导读

STARLINK-36250(NORAD编号68513)是SpaceX星链星座中的一颗低轨互联网卫星,属于SpaceX全球卫星互联网组网计划的组成部分。星链星座通过大规模近地轨道卫星组网,为地面网络覆盖薄弱区域提供高速互联网服务。 2026年SpaceX启动星链轨道调整计划,将包括该卫星在内的4400颗星链卫星轨道高度从550公里降至480公里,以此降低太空碰撞风险,缩短故障卫星在轨滞留时间,减少太空碎片隐患。截至2026年3月,SpaceX已累计发射超1万颗星链卫星,STARLINK-36250是其星座扩容过程中的一颗组网卫星,服务全球宽带接入需求。(全文150字)

Basic Information
目录编号:
68513
目录名称:
STARLINK-36250
国际标识:
2026-068F
轨道中心:
EARTH
卫星名称:
星链-36250
卫星全名:
星链-36250(STARLINK-36250)
卫星状态:
在轨 (已飞行167 天)
发射日期:
2026-03-30 UTC
国别 :
美国 (US)
星等 :
--
This satellite is enrolled in the Space Conjunction Data Service (SCDS) and the current flight risk assessment level is: No High Risk
Orbit Information
数据来源 国际轨道数据
星历时间: 2026-09-12T20:07:10+0800
23小时前
查看轨道信息
半长轴: 6840.813km
偏心率: 0.0001283
轨道倾角: 53.159°
近地点辐角 108.787°
升交点赤经 336.810°
平近点角 251.328°
近地点: 461.798km
远地点: 463.554km
周期: 93.847分钟
每日圈数: 15.344094
Detailed Information
固有亮度:
5
最大亮度:
2.5
卫星平台:
Starlink V1.0
覆盖范围:
全球
运营商:
太空探索技术公司
运营商所在国:
美国
制造商(研发单位):
太空探索技术公司
制造商所在国:
美国
使用方式:
暂无
Satellite Introduction
Starlink 计划是 SpaceX 推出的全球卫星互联网项目,通过发射低轨道卫星,为全球尤其是偏远地区提供高速、低延迟的互联网服务。自 2019 年起,Starlink 已部署数千颗卫星,旨在缩小全球数字鸿沟,推动互联网普及。该项目还为军事、航空等行业提供通信支持,带来广泛经济效益。
2D Orbit Map
3D Orbit Map
Orbit Altitude Analysis Chart
Orbit Inclination Analysis Chart
Orbit Comprehensive Analysis Chart
View Comprehensive Chart
Conjunction Data List
Event ID Objects TCA Miss Dist (km) Collision Risk Probability Collision Risk Index (CRI) Action
CDM_260915-064906-159206-851321
2026-09-15T
06:49:58+0000
0.691 km
远距离
5.738259E-5 中风险 0.7
CDM_260915-012606-610206-851321
2026-09-15T
01:26:32+0000
0.572 km
远距离
4.999655E-5 中风险 0.69
CDM_260914-213206-610206-851321
2026-09-14T
21:32:03+0000
0.589 km
远距离
4.589106E-5 中风险 0.68
CDM_260915-082306-159206-851321
2026-09-15T
08:23:45+0000
2.286 km
极远距离
1.408897E-6 低风险 0.38
CDM_260915-051606-159206-851321
2026-09-15T
05:16:10+0000
2.772 km
极远距离
1.019989E-6 低风险 0.35
Miss Distance Evolution Trend with All Objects
Collision Probability Evolution Trend with All Objects